Powrót do katalogu

STARLINK-35151

AktywnyŁącznośćVLEO
NORAD 65624·PAYLOAD·🇺🇸 United States

Wystrzelony Sep 18, 2025 z Cape Canaveral Space Force Station

Loading…

Następne Przeloty (najbliższe 24 godziny)

TLE

ŚwieżeSource: CelesTrak SupGP

Epoka: Sep 14, 2026, 14:13 UTC

1 65624C 25210C   26257.59284722  .00058065  00000+0  17160-2 0  2571
2 65624  53.1564 143.6768 0001113  92.9613  29.3625 15.34353661    15

Śledź STARLINK-35151 w czasie rzeczywistym z AllMySat

Download on the App Store